• în Republica Moldova
  • Lista ţărilor
  • Pe 7 zile
  • Temperatura apei
  • Hartă satelitară
  • Meteo pe hartă
  • Widget-uri
  • user-avatar
    Intrare

    Meteo pe oră la Uige

    Astăzi, 25 Martie, Sâmbătă

    Timp Temperatura Precipitaţii Vânt Presiune Umiditate
    00:00 +22°C° 0 mm 1 m/s 692 mmHg 90%
    01:00 +22°C° 0 mm 1 m/s 691 mmHg 91%
    02:00 +21°C° 0 mm 1 m/s 691 mmHg 92%
    03:00 +21°C° 0 mm 1 m/s 691 mmHg 93%
    04:00 +21°C° 0 mm 1 m/s 691 mmHg 93%
    05:00 +21°C° 0 mm 1 m/s 691 mmHg 92%
    06:00 +22°C° 0 mm 1 m/s 691 mmHg 91%
    07:00 +22°C° 0 mm 1 m/s 692 mmHg 90%
    08:00 +25°C° 0 mm 1 m/s 692 mmHg 78%
    09:00 +28°C° 0 mm 1 m/s 693 mmHg 65%
    10:00 +31°C° 0 mm 1 m/s 693 mmHg 53%
    11:00 +33°C° 0 mm 1 m/s 693 mmHg 48%
    12:00 +34°C° 0 mm 1 m/s 693 mmHg 43%
    13:00 +36°C° 0 mm 1 m/s 692 mmHg 38%
    14:00 +35°C° 0 mm 1 m/s 692 mmHg 41%
    15:00 +34°C° 0 mm 1 m/s 691 mmHg 43%
    16:00 +33°C° 0 mm 1 m/s 690 mmHg 46%
    17:00 +30°C° 0,1 mm 1 m/s 690 mmHg 54%
    18:00 +27°C° 0,1 mm 1 m/s 690 mmHg 62%
    19:00 +25°C° 0,1 mm 1 m/s 689 mmHg 70%
    20:00 +24°C° 0 mm 1 m/s 690 mmHg 74%
    21:00 +24°C° 0 mm 1 m/s 690 mmHg 78%
    22:00 +23°C° 0 mm 1 m/s 691 mmHg 82%
    23:00 +23°C° 0 mm 1 m/s 691 mmHg 86%

    Mâine, 26 Martie, Duminică

    Timp Temperatura Precipitaţii Vânt Presiune Umiditate
    00:00 +22°C° 0 mm 1 m/s 691 mmHg 90%
    01:00 +22°C° 0 mm 1 m/s 691 mmHg 93%
    02:00 +22°C° 0 mm 1 m/s 691 mmHg 95%
    03:00 +21°C° 0 mm 1 m/s 690 mmHg 96%
    04:00 +21°C° 0 mm 1 m/s 690 mmHg 98%
    05:00 +22°C° 0 mm 1 m/s 690 mmHg 96%
    06:00 +22°C° 0 mm 1 m/s 691 mmHg 94%
    07:00 +23°C° 0 mm 1 m/s 691 mmHg 92%
    08:00 +26°C° 0 mm 1 m/s 692 mmHg 80%
    09:00 +29°C° 0 mm 1 m/s 693 mmHg 68%
    10:00 +32°C° 0 mm 1 m/s 694 mmHg 56%
    11:00 +33°C° 0,1 mm 1 m/s 693 mmHg 51%
    12:00 +34°C° 0,1 mm 1 m/s 692 mmHg 47%
    13:00 +36°C° 0,1 mm 1 m/s 692 mmHg 42%
    14:00 +35°C° 0,3 mm 1 m/s 691 mmHg 44%
    15:00 +34°C° 0,3 mm 1 m/s 690 mmHg 46%
    16:00 +33°C° 0,3 mm 1 m/s 689 mmHg 48%
    17:00 +30°C° 0,1 mm 1 m/s 689 mmHg 58%
    18:00 +27°C° 0,1 mm 1 m/s 689 mmHg 67%
    19:00 +24°C° 0,1 mm 1 m/s 689 mmHg 77%
    20:00 +24°C° 0,1 mm 1 m/s 690 mmHg 79%
    21:00 +23°C° 0,1 mm 1 m/s 690 mmHg 82%
    22:00 +23°C° 0,1 mm 1 m/s 691 mmHg 85%
    23:00 +22°C° 0 mm 1 m/s 691 mmHg 87%

    Poimâine, 27 Martie, Luni

    Timp Temperatura Precipitaţii Vânt Presiune Umiditate
    00:00 +22°C° 0 mm 1 m/s 690 mmHg 90%
    01:00 +22°C° 0 mm 1 m/s 690 mmHg 92%
    02:00 +22°C° 0 mm 1 m/s 690 mmHg 94%
    03:00 +21°C° 0 mm 1 m/s 689 mmHg 95%
    04:00 +21°C° 0 mm 1 m/s 689 mmHg 97%
    05:00 +22°C° 0 mm 1 m/s 690 mmHg 96%
    06:00 +22°C° 0 mm 1 m/s 690 mmHg 95%
    07:00 +23°C° 0 mm 1 m/s 691 mmHg 94%
    08:00 +26°C° 0 mm 1 m/s 692 mmHg 82%
    09:00 +28°C° 0 mm 1 m/s 692 mmHg 69%
    10:00 +31°C° 0 mm 1 m/s 693 mmHg 57%
    11:00 +33°C° 0 mm 1 m/s 692 mmHg 51%
    12:00 +34°C° 0 mm 1 m/s 692 mmHg 46%
    13:00 +36°C° 0 mm 1 m/s 691 mmHg 40%
    14:00 +35°C° 0,2 mm 1 m/s 690 mmHg 42%
    15:00 +34°C° 0,2 mm 1 m/s 690 mmHg 44%
    16:00 +33°C° 0,2 mm 1 m/s 689 mmHg 46%
    17:00 +30°C° 0,3 mm 1 m/s 689 mmHg 58%
    18:00 +27°C° 0,3 mm 1 m/s 689 mmHg 69%
    19:00 +24°C° 0,3 mm 1 m/s 689 mmHg 81%
    20:00 +24°C° 0,2 mm 1 m/s 690 mmHg 84%
    21:00 +23°C° 0,2 mm 1 m/s 690 mmHg 86%
    22:00 +23°C° 0,2 mm 1 m/s 691 mmHg 89%
    23:00 +23°C° 0,1 mm 1 m/s 691 mmHg 89%

    28 Martie, Marţi

    Timp Temperatura Precipitaţii Vânt Presiune Umiditate
    00:00 +23°C° 0,1 mm 1 m/s 691 mmHg 89%
    01:00 +23°C° 0,1 mm 1 m/s 691 mmHg 89%
    02:00 +23°C° 0 mm 1 m/s 690 mmHg 90%
    03:00 +22°C° 0 mm 1 m/s 690 mmHg 91%
    04:00 +22°C° 0 mm 1 m/s 690 mmHg 92%
    05:00 +23°C° 0 mm 1 m/s 690 mmHg 91%
    06:00 +23°C° 0 mm 1 m/s 690 mmHg 90%
    07:00 +23°C° 0 mm 1 m/s 691 mmHg 89%
    08:00 +26°C° 0 mm 1 m/s 691 mmHg 77%
    09:00 +28°C° 0 mm 2 m/s 692 mmHg 66%
    10:00 +31°C° 0 mm 2 m/s 692 mmHg 54%
    11:00 +32°C° 0 mm 2 m/s 692 mmHg 50%
    12:00 +34°C° 0 mm 2 m/s 691 mmHg 47%
    13:00 +35°C° 0 mm 2 m/s 690 mmHg 43%
    14:00 +34°C° 0,1 mm 2 m/s 690 mmHg 46%
    15:00 +33°C° 0,1 mm 1 m/s 689 mmHg 49%
    16:00 +32°C° 0,1 mm 1 m/s 689 mmHg 52%
    17:00 +30°C° 0,1 mm 1 m/s 689 mmHg 62%
    18:00 +28°C° 0,1 mm 1 m/s 689 mmHg 71%
    19:00 +25°C° 0,1 mm 2 m/s 689 mmHg 81%
    20:00 +25°C° 0,1 mm 1 m/s 690 mmHg 81%
    21:00 +25°C° 0,1 mm 1 m/s 690 mmHg 82%
    22:00 +24°C° 0,1 mm 1 m/s 691 mmHg 83%
    23:00 +24°C° 0,3 mm 1 m/s 690 mmHg 85%

    29 Martie, Miercuri

    Timp Temperatura Precipitaţii Vânt Presiune Umiditate
    00:00 +23°C° 0,3 mm 1 m/s 690 mmHg 88%
    01:00 +23°C° 0,3 mm 1 m/s 689 mmHg 90%
    02:00 +23°C° 0 mm 1 m/s 689 mmHg 90%
    03:00 +22°C° 0 mm 1 m/s 689 mmHg 91%
    04:00 +22°C° 0 mm 1 m/s 689 mmHg 91%
    05:00 +23°C° 0 mm 1 m/s 689 mmHg 90%
    06:00 +23°C° 0 mm 1 m/s 690 mmHg 89%
    07:00 +23°C° 0 mm 1 m/s 691 mmHg 89%
    08:00 +26°C° 0 mm 1 m/s 691 mmHg 79%
    09:00 +28°C° 0 mm 2 m/s 691 mmHg 70%
    10:00 +30°C° 0 mm 2 m/s 692 mmHg 60%
    11:00 +30°C° 0,8 mm 2 m/s 691 mmHg 61%
    12:00 +31°C° 0,8 mm 2 m/s 690 mmHg 62%
    13:00 +31°C° 0,8 mm 1 m/s 689 mmHg 63%
    14:00 +30°C° 2 mm 1 m/s 689 mmHg 69%
    15:00 +30°C° 2 mm 1 m/s 688 mmHg 74%
    16:00 +29°C° 2 mm 1 m/s 688 mmHg 80%
    17:00 +27°C° 1,9 mm 1 m/s 688 mmHg 85%
    18:00 +26°C° 1,9 mm 1 m/s 689 mmHg 89%
    19:00 +22°C° 1,9 mm 0 m/s 689 mmHg 93%
    20:00 +24°C° 0,8 mm 1 m/s 689 mmHg 94%
    21:00 +23°C° 0,8 mm 1 m/s 690 mmHg 95%
    22:00 +23°C° 0,8 mm 1 m/s 690 mmHg 95%
    23:00 +23°C° 0,9 mm 1 m/s 690 mmHg 95%

    30 Martie, Joi

    Timp Temperatura Precipitaţii Vânt Presiune Umiditate
    00:00 +23°C° 0,9 mm 1 m/s 690 mmHg 95%
    01:00 +23°C° 0,9 mm 1 m/s 690 mmHg 95%
    02:00 +23°C° 0,2 mm 1 m/s 689 mmHg 96%
    03:00 +22°C° 0,2 mm 1 m/s 689 mmHg 96%
    04:00 +22°C° 0,2 mm 1 m/s 689 mmHg 96%
    05:00 +23°C° 0 mm 1 m/s 690 mmHg 95%
    06:00 +23°C° 0 mm 1 m/s 690 mmHg 95%
    07:00 +23°C° 0 mm 1 m/s 691 mmHg 94%
    08:00 +25°C° 0,2 mm 1 m/s 691 mmHg 87%
    09:00 +27°C° 0,2 mm 1 m/s 692 mmHg 79%
    10:00 +29°C° 0,2 mm 1 m/s 692 mmHg 72%
    11:00 +30°C° 0,5 mm 1 m/s 692 mmHg 68%
    12:00 +30°C° 0,5 mm 1 m/s 691 mmHg 64%
    13:00 +31°C° 0,5 mm 1 m/s 691 mmHg 59%
    14:00 +30°C° 0,7 mm 1 m/s 690 mmHg 63%
    15:00 +30°C° 0,7 mm 1 m/s 690 mmHg 67%
    16:00 +27°C° 0,7 mm 0 m/s 689 mmHg 71%
    17:00 +25°C° 0,6 mm 0 m/s 690 mmHg 77%
    18:00 +24°C° 0,6 mm 0 m/s 690 mmHg 83%
    19:00 +24°C° 0,6 mm 1 m/s 691 mmHg 89%
    20:00 +24°C° 0,6 mm 1 m/s 691 mmHg 90%
    21:00 +23°C° 0,6 mm 1 m/s 691 mmHg 91%
    22:00 +23°C° 0,6 mm 1 m/s 691 mmHg 92%
    23:00 +23°C° 0,1 mm 1 m/s 691 mmHg 92%
    Arată mai mult